Toronto Pearson, Ontario

6:28 AM EST on November 14, 2019 (GMT -0500)
Toronto-Pearson International

Weather History for CYYZ - May, 2019

Change the Weather History Date:

Thursday, May 2, 2019

  Actual Average Record
Temperature  
Mean Temperature 46 °F -  
Max Temperature 50 °F 66 °F 86 °F (2001)
Min Temperature 41 °F 44 °F 33 °F (1997)
Degree Days  
Heating Degree Days 20    
Moisture  
Dew Point 41 °F    
Average Humidity 91    
Maximum Humidity 100    
Minimum Humidity 72    
Precipitation  
Precipitation 0.08 in 0.09 in - ()
Sea Level Pressure  
Sea Level Pressure 30.15 in    
Wind  
Wind Speed 5 mph ()    
Max Wind Speed 10 mph    
Max Gust Speed -    
Visibility 5.4 miles    
Events Fog , Rain    
Averages and records for this station are not official NWS values.
T = Trace of Precipitation, MM = Missing Value Source: Averaged Metar Reports

Daily Weather History Graph

Daily Weather History Graph

Search for Another Location

Airport or City:

Astronomy

May. 02, 2019 Rise Set
Actual Time 6:09 AM EDT 8:21 PM EDT
Civil Twilight 5:38 AM EDT 8:53 PM EDT
Nautical Twilight 4:59 AM EDT 9:32 PM EDT
Astronomical Twilight 4:16 AM EDT 10:16 PM EDT
Moon 5:29 AM EDT (5/2) 6:00 PM EDT (5/2)
Length of Visible Light 15h 15m
Length of Day
14h 12m
Waning Crescent, 5% of the Moon is Illuminated
May 2
Waning Crescent
May 4
New
May 11
First Quarter
May 18
Full
May 26
Last Quarter

Hourly Weather History & Observations

Time (EDT) Temp. Windchill Dew Point Humidity Pressure Visibility Wind Dir Wind Speed Gust Speed Precip Events Conditions
12:00 AM 44.6 °F 43.1 °F 42.8 °F 93% 30.05 in 4.0 mi ESE 3.5 mph - N/A   Overcast
1:00 AM 44.6 °F 41.4 °F 42.8 °F 93% 30.06 in 3.0 mi ESE 5.8 mph - N/A   Overcast
1:45 AM 44.6 °F 40.7 °F 42.8 °F 93% 30.06 in 2.0 mi SE 6.9 mph - N/A   Overcast
2:00 AM 44 °F - 42 °F 91% 30.07 in 2 mi SSE 6.9 mph - -   Mist
2:00 AM 44.6 °F 40.2 °F 42.8 °F 93% 30.07 in 2.0 mi SSE 8.1 mph - N/A   Overcast
2:39 AM 42.8 °F - 42.8 °F 100% 30.07 in 2.0 mi SE 2.3 mph - N/A   Mist
3:00 AM 44.6 °F 43.1 °F 42.8 °F 93% 30.06 in 2.0 mi NE 3.5 mph - N/A   Mist
5:00 AM 45 °F - 44 °F 92% 30.09 in 2 mi NNE 2.3 mph - -  
5:00 AM 44.6 °F - 42.8 °F 93% 30.09 in 1.8 mi NNE 2.3 mph - N/A   Overcast
5:09 AM 44.6 °F 43.1 °F 42.8 °F 93% 30.09 in 1.2 mi NE 3.5 mph - N/A   Overcast
6:00 AM 44.6 °F 42.2 °F 42.8 °F 93% 30.11 in 0.8 mi ESE 4.6 mph - N/A   Overcast
6:19 AM 44.6 °F - 42.8 °F 93% 30.12 in 0.5 mi Variable 2.3 mph - N/A Fog Fog
6:27 AM 44.6 °F 43.1 °F 42.8 °F 93% 30.13 in 0.8 mi SSE 3.5 mph - N/A   Overcast
7:00 AM 44.6 °F 42.2 °F 42.8 °F 93% 30.14 in 0.6 mi ESE 4.6 mph - N/A   Overcast
7:06 AM 44.6 °F 42.2 °F 42.8 °F 93% 30.14 in 0.5 mi SE 4.6 mph - N/A Fog Fog
7:35 AM 42.8 °F 40.1 °F 41.0 °F 93% 30.16 in 0.4 mi SSE 4.6 mph - N/A Fog Light Drizzle
8:00 AM 43 °F - 41 °F 91% 30.16 in 0 mi SE 4.6 mph - - Rain Light Drizzle
8:00 AM 42.8 °F 39.3 °F 41.0 °F 93% 30.15 in 0.4 mi SSE 5.8 mph - N/A Fog Light Drizzle
9:00 AM 41.0 °F 37.1 °F 41.0 °F 100% 30.19 in 0.4 mi South 5.8 mph - N/A Fog Light Drizzle
9:36 AM 41.0 °F 35.8 °F 39.2 °F 93% 30.18 in 0.5 mi SSE 8.1 mph - N/A Fog Light Drizzle
10:00 AM 41.0 °F 35.8 °F 39.2 °F 93% 30.19 in 0.5 mi SE 8.1 mph - N/A Fog Fog
10:50 AM 41.0 °F 36.4 °F 41.0 °F 100% 30.19 in 0.8 mi SSE 6.9 mph - N/A   Mist
11:00 AM 41 °F - 40 °F 95% 30.19 in 1 mi SSE 6.9 mph - -  
11:00 AM 41.0 °F 36.4 °F 41.0 °F 100% 30.19 in 1.0 mi SSE 6.9 mph - N/A   Overcast
11:24 AM 41.0 °F 37.1 °F 41.0 °F 100% 30.20 in 1.5 mi SSE 5.8 mph - N/A   Overcast
12:00 PM 41.0 °F 36.4 °F 39.2 °F 93% 30.20 in 2.5 mi SE 6.9 mph - N/A   Overcast
12:14 PM 41.0 °F 36.4 °F 39.2 °F 93% 30.20 in 3.0 mi SE 6.9 mph - N/A   Overcast
1:00 PM 42.8 °F 38.6 °F 41.0 °F 93% 30.19 in 5.0 mi SSE 6.9 mph - N/A   Overcast
1:29 PM 42.8 °F 38.0 °F 41.0 °F 93% 30.19 in 6.0 mi SSE 8.1 mph - N/A   Overcast
1:40 PM 42.8 °F 38.0 °F 41.0 °F 93% 30.20 in 8.0 mi SSE 8.1 mph - N/A   Overcast
2:00 PM 42 °F - 41 °F 94% 30.20 in 7 mi SSE 8.1 mph - -   Partly Cloudy
2:00 PM 42.8 °F 38.0 °F 41.0 °F 93% 30.20 in 8.0 mi SSE 8.1 mph - N/A   Overcast
3:00 PM 44.6 °F 42.2 °F 42.8 °F 93% 30.19 in 10.0 mi SSE 4.6 mph - N/A   Mostly Cloudy
3:11 PM 46.4 °F 43.5 °F 44.6 °F 93% 30.19 in 10.0 mi SE 5.8 mph - N/A   Mostly Cloudy
4:00 PM 46.4 °F 43.5 °F 44.6 °F 93% 30.19 in 12.0 mi SE 5.8 mph - N/A   Mostly Cloudy
4:30 PM 46.4 °F 45.2 °F 42.8 °F 87% 30.18 in 15.0 mi East 3.5 mph - N/A   Overcast
5:00 PM 49 °F - 45 °F 80% 30.16 in 12 mi ESE 5.8 mph - -  
5:00 PM 48.2 °F - 44.6 °F 87% 30.16 in 12.0 mi SE 5.8 mph - N/A   Scattered Clouds
6:00 PM 48.2 °F - 42.8 °F 82% 30.16 in 12.0 mi SSE 10.4 mph - N/A   Mostly Cloudy
7:00 PM 46.4 °F 42.9 °F 41.0 °F 81% 30.17 in 15.0 mi SSE 6.9 mph - N/A   Mostly Cloudy
8:00 PM 45 °F - 39 °F 72% 30.14 in 15 mi SSE 6.9 mph - -   Scattered Clouds
8:00 PM 44.6 °F 40.2 °F 39.2 °F 81% 30.14 in 15.0 mi SSE 8.1 mph - N/A   Mostly Cloudy
8:43 PM 42.8 °F 38.6 °F 37.4 °F 81% 30.15 in 8.0 mi SE 6.9 mph - N/A   Overcast
9:00 PM 42.8 °F 41.1 °F 39.2 °F 87% 30.16 in 11.0 mi ESE 3.5 mph - N/A   Overcast
10:00 PM 44.6 °F 39.2 °F 39.2 °F 81% 30.15 in 15.0 mi East 10.4 mph - N/A   Overcast
11:00 PM 44 °F - 39 °F 76% 30.13 in 10 mi ESE 6.9 mph - -   Overcast
11:00 PM 44.6 °F 40.2 °F 39.2 °F 81% 30.13 in 10.0 mi East 8.1 mph - N/A   Overcast
11:38 PM 42.8 °F 39.3 °F 39.2 °F 87% 30.12 in 6.0 mi East 5.8 mph - N/A Rain Light Rain